Location: Unspecified
(0.0000°N, 0.0000°E)
Time: 22:25:15
(UTC+00:00)

Vanguard 2 - Pass Details

Date: 05 October 2020
Orbit: 554 x 2937 km, 32.9° (Epoch: 27 October)

Event Time Altitude Azimuth Distance (km) Brightness Sun altitude
Rises 13:02:17 0° 266° (W) 3,017 10.9 70.8°
Reaches altitude 10° 13:05:02 10° 246° (WSW) 2,317 10.5 70.2°
Maximum altitude 13:08:48 19° 201° (SSW) 2,111 10.3 69.3°
Drops below altitude 10° 13:13:45 10° 159° (SSE) 3,179 10.8 68.1°
Sets 13:18:28 0° 143° (SE) 4,656 11.4 66.9°
